Date,TemperatureHighF,TemperatureAvgF,TemperatureLowF,DewpointHighF,DewpointAvgF,DewpointLowF,HumidityHigh,HumidityAvg,HumidityLow,PressureMaxIn,PressureMinIn,WindSpeedMaxMPH,WindSpeedAvgMPH,GustSpeedMaxMPH,PrecipitationSumIn
2013-1-1,42.2,38.2,33.9,41.0,35.3,27.0,97,89,75,30.20,30.03,8,2,10,0.00
2013-1-2,42.9,38.6,36.1,42.0,35.7,33.0,97,89,77,30.19,29.99,15,6,26,0.01
2013-1-3,38.9,34.9,28.7,34.0,31.0,27.0,95,86,70,30.37,30.15,20,5,24,0.00
2013-1-4,39.3,31.7,25.2,26.0,23.3,18.0,93,73,46,30.47,30.35,25,7,30,0.00
2013-1-5,49.8,35.7,22.5,32.0,23.2,20.0,91,64,34,30.49,30.30,8,3,13,0.00
2013-1-6,43.2,39.2,35.3,36.0,33.4,30.0,89,80,69,30.30,30.13,18,7,24,0.00
2013-1-7,53.1,39.0,28.9,32.0,27.2,23.0,87,65,35,30.46,30.30,14,5,23,0.00
2013-1-8,55.1,39.8,27.5,42.0,32.7,25.0,94,77,54,30.50,30.36,9,3,14,0.00
2013-1-9,48.7,44.2,39.9,46.0,41.5,38.0,94,90,87,30.53,30.42,4,1,6,0.00
2013-1-10,65.8,52.3,41.1,54.0,47.1,40.0,97,84,63,30.55,30.32,15,4,26,0.00
2013-1-11,58.6,53.8,48.6,55.0,51.6,46.0,96,92,84,30.33,30.12,17,7,21,0.12
2013-1-12,71.7,60.4,51.9,62.0,56.4,51.0,97,87,67,30.20,30.07,12,4,21,0.00
2013-1-13,71.4,63.0,54.9,59.0,56.4,53.0,92,79,57,30.09,29.99,15,6,22,0.02
2013-1-14,61.1,51.9,43.6,59.0,50.9,43.0,98,96,91,30.22,30.00,18,5,25,1.83
2013-1-15,51.6,47.6,43.9,51.0,47.1,43.0,98,98,97,30.17,30.02,9,3,13,1.18
2013-1-16,57.8,51.5,46.9,55.0,50.3,46.0,97,96,87,30.04,29.95,10,2,12,0.27
2013-1-17,48.5,40.7,32.5,48.0,39.7,30.0,97,96,91,30.29,29.84,25,8,29,1.58
2013-1-18,46.6,34.4,28.5,32.0,26.6,20.0,95,76,38,30.59,30.30,19,5,22,0.00
2013-1-19,56.5,38.4,26.4,31.0,27.0,20.0,96,69,26,30.53,30.24,6,2,13,0.00
2013-1-20,53.7,39.0,27.4,36.0,31.1,26.0,96,76,45,30.24,30.12,21,5,23,0.01
2013-1-21,47.8,35.8,25.4,32.0,23.9,15.0,96,66,36,30.17,30.04,31,8,36,0.00
2013-1-22,30.1,25.1,19.3,15.0,5.3,-2.0,63,44,26,30.35,30.13,29,12,34,0.00
2013-1-23,44.4,30.8,24.7,27.0,15.5,3.0,88,55,39,30.43,30.16,20,6,25,0.00
2013-1-24,44.4,32.5,23.2,33.0,17.4,5.0,90,55,31,30.47,30.11,34,12,48,0.00
2013-1-25,37.5,27.5,22.2,36.0,18.4,5.0,95,71,45,30.49,30.16,23,7,26,0.02
2013-1-26,44.9,36.1,28.3,36.0,28.8,23.0,94,76,46,30.41,30.21,20,8,28,0.00
2013-1-27,44.5,34.2,23.9,32.0,27.7,22.0,94,78,60,30.56,30.41,14,5,19,0.03
2013-1-28,65.6,47.2,33.4,49.0,39.2,31.0,92,75,51,30.48,30.25,9,3,15,0.00
2013-1-29,72.5,54.4,38.4,57.0,47.6,37.0,96,80,45,30.28,29.99,18,4,20,0.01
2013-1-30,63.5,57.6,45.2,60.0,54.9,40.0,97,90,82,29.98,29.46,24,9,33,1.99
2013-1-31,44.0,34.5,28.6,39.0,23.4,19.0,88,65,47,30.07,29.57,30,12,40,0.00